Regional Weather Roundup
Issued by NWS Northern Indiana

Home | Current Version | Previous Version | Text Only | Print | Product List | Glossary On
Versions: 1 2 3 4 5 6 7 8 9 10 11 12 13 14 15 16 17 18 19 20 21 22 23 24 25 26 27 28 29 30 31 32 33 34 35 36 37 38 39 40 41 42 43 44 45 46 47 48 49 50
000
ASUS43 KIWX 300110
RWRIWX

KIWX WEATHER ROUNDUP
NATIONAL WEATHER SERVICE NORTHERN INDIANA
900 PM EDT FRI MAY 29 2015

NOTE: "FAIR" INDICATES FEW OR NO CLOUDS BELOW 12,000 FEET WITH NO
SIGNIFICANT WEATHER AND/OR OBSTRUCTIONS TO VISIBILITY.

* THESE STATIONS ARE NOT UNDER NWS QUALITY CONTROL. THEY ALSO MAY NOT
  REPORT WEATHER SUCH AS PRECIPITATION OR FOG.

INZ001>027-300200-
NORTHERN INDIANA

CITY           SKY/WX    TMP DP  RH WIND       PRES   REMARKS
GARY*          MOCLDY    73  68  83 SW12      29.94R
VALPARAISO     LGT RAIN  72  68  87 W9        29.95R
MICHIGAN CITY* CLOUDY    79  59  50 SW6       29.94R
LAPORTE*       MOCLDY    82  61  48 SW9       29.95R
KNOX*          MOCLDY    79  61  53 S17       29.94R
SOUTH BEND     PTCLDY    79  62  56 S9        29.94S
ELKHART*       CLEAR     81  59  47 SW6       29.95S
GOSHEN         PTCLDY    79  64  60 S12       29.95S
MONTICELLO*    MOCLDY    78  66  65 S10       29.97R
LOGANSPORT*    PTCLDY    79  59  50 S10       29.99R
ROCHESTER*     PTCLDY    81  64  57 SW8       29.98R
ANGOLA*        MOCLDY    81  73  78 S8        29.98R
FORT WAYNE     MOCLDY    79  63  57 S15       29.99S
HUNTINGTON*    CLEAR     78  63  60 S7        29.99R
PERU/GRISSOM   CLOUDY    79  64  61 SW12      29.99R
MARION*        CLEAR     78  60  53 SW14G20   30.01S

$$
INZ028>050-300200-
CENTRAL INDIANA

CITY           SKY/WX    TMP DP  RH WIND       PRES   REMARKS
LAFAYETTE      PTCLDY    78  63  59 S8        29.97S
KOKOMO*        PTCLDY    79  63  57 SW10      29.99S
MUNCIE*        CLEAR     79  62  56 S9        30.02R
INDIANAPOLIS   PTCLDY    77  62  59 S13       30.00S

$$
MIZ043>046-050>051-056>058-064>065-071>073-077>080-300200-
SOUTHWEST LOWER MICHIGAN

CITY           SKY/WX    TMP DP  RH WIND       PRES   REMARKS
BATTLE CREEK   PTCLDY    76  64  66 S10       29.95F
BENTON HARBOR  MOCLDY    71  65  81 CALM      29.92S
COLDWATER*     MOCLDY    78  61  55 S6        29.96F
HILLSDALE*     PTCLDY    78  63  59 S6        29.99S
HOLLAND        LGT RAIN  75  70  84 S9G16     29.93R
GRAND RAPIDS   MOCLDY    72  69  90 SE6       29.92F
KALAMAZOO      PTCLDY    77  64  64 S8        29.93F
STURGIS*       PTCLDY    79  64  61 S8        29.96R
THREE RIVERS*  FAIR      79  64  59 S8        29.95S

$$
OHZ001>008-015>018-024>025-300200-
NORTHWEST OHIO

CITY           SKY/WX    TMP DP  RH WIND       PRES   REMARKS
WAUSEON*       FAIR      79  66  65 S15       29.99S
DEFIANCE       PTCLDY    78  64  61 S6        29.99S
FINDLAY        MOCLDY    78  64  61 S10       30.01S
TOLEDO EXPRESS MOCLDY    76  65  68 S5        29.99S
TOLEDO METCALF LGT RAIN  78  67  68 SW8       30.01R
LIMA           MOCLDY    78  62  57 S8        30.03S

$$
AND FOR LAKE MICHIGAN COASTAL AND OPEN LAKE BUOY OBSERVATIONS

STATION/POSITION TEMP    WIND        PRES    VSBY  WAVE
                 AIR SEA DIR/SP/G                  HT/PER
                 (F)     (DEG/KT/KT) (MB)    (MI)  (FT/S)
CALUMET HARBOR    75     200/  9/ 13   N/A
MICHIGAN CITY            280/  5/  8   N/A
BURNS HARBOR      80     210/ 14/ 24 1013.2F
SAINT JOSEPH      66     210/  9/ 23 1014.9R
SOUTH LAKE BUOY   48 38  180/  8/ 10 1012.7S         0
4 MI NW BRIDGMAN  67 59  280/  8/ 12   N/A           1
MICHIGAN CITY     65 56  330/  4/  8   N/A           1/ 2

$$
&&



USA.gov is the U.S. government's official web portal to all federal, state and local government web resources and services.